TimeEST,TemperatureF,Dew PointF,Humidity,Sea Level PressureIn,VisibilityMPH,Wind Direction,Wind SpeedMPH,Gust SpeedMPH,PrecipitationIn,Events,Conditions,WindDirDegrees,DateUTC
12:53 AM,30.9,19.9,64,29.76,10.0,NW,6.9,-,N/A,,Overcast,320,2013-03-03 05:53:00
1:53 AM,30.0,19.0,64,29.75,10.0,NW,10.4,-,N/A,,Overcast,320,2013-03-03 06:53:00
2:53 AM,30.0,18.0,61,29.74,10.0,NNW,6.9,-,N/A,,Overcast,340,2013-03-03 07:53:00
3:53 AM,30.0,17.1,59,29.74,10.0,NW,9.2,-,N/A,,Overcast,320,2013-03-03 08:53:00
4:53 AM,28.9,16.0,58,29.75,10.0,NW,6.9,-,N/A,,Overcast,320,2013-03-03 09:53:00
6:53 AM,28.4,15.8,59,29.75,10.0,NW,5.8,-,N/A,,Overcast,320,2013-03-03 11:53:00
7:53 AM,30.0,17.1,59,29.76,10.0,NW,10.4,-,N/A,,Overcast,320,2013-03-03 12:53:00
8:53 AM,30.9,18.0,59,29.76,10.0,NW,9.2,-,N/A,,Overcast,310,2013-03-03 13:53:00
9:53 AM,32.0,16.0,52,29.75,10.0,NW,11.5,18.4,N/A,,Overcast,310,2013-03-03 14:53:00
10:53 AM,33.1,15.1,48,29.75,10.0,NNW,13.8,19.6,N/A,,Mostly Cloudy,340,2013-03-03 15:53:00
11:53 AM,34.0,16.0,48,29.74,10.0,North,12.7,19.6,N/A,,Overcast,350,2013-03-03 16:53:00
12:53 PM,36.0,18.0,48,29.72,10.0,WNW,11.5,20.7,N/A,,Overcast,300,2013-03-03 17:53:00
1:53 PM,36.0,18.0,48,29.70,10.0,NW,10.4,19.6,N/A,,Mostly Cloudy,320,2013-03-03 18:53:00
2:53 PM,36.0,18.0,48,29.70,10.0,WNW,10.4,20.7,N/A,,Mostly Cloudy,290,2013-03-03 19:53:00
3:53 PM,37.0,17.1,44,29.70,10.0,NW,12.7,21.9,N/A,,Partly Cloudy,310,2013-03-03 20:53:00
4:53 PM,37.4,17.6,45,29.70,10.0,NNW,11.5,19.6,N/A,,Mostly Cloudy,340,2013-03-03 21:53:00
5:53 PM,34.0,17.1,50,29.73,10.0,NNW,10.4,19.6,N/A,,Mostly Cloudy,330,2013-03-03 22:53:00
6:53 PM,33.1,18.0,54,29.74,10.0,NW,10.4,23.0,N/A,,Overcast,310,2013-03-03 23:53:00
7:53 PM,32.0,18.0,56,29.76,10.0,NW,5.8,-,N/A,,Clear,320,2013-03-04 00:53:00
8:53 PM,32.0,18.0,56,29.78,10.0,NNW,10.4,-,N/A,,Partly Cloudy,330,2013-03-04 01:53:00
9:53 PM,30.9,17.1,57,29.78,10.0,NW,13.8,23.0,N/A,,Mostly Cloudy,310,2013-03-04 02:53:00
10:53 PM,30.0,16.0,56,29.79,10.0,NW,10.4,23.0,N/A,,Clear,310,2013-03-04 03:53:00
11:53 PM,28.9,14.0,54,29.79,10.0,NNW,12.7,19.6,N/A,,Clear,330,2013-03-04 04:53:00